Helicity
17 13 20 8 12 41 20 23 23 19 29 39 35 37 38 62 56 65 77 106 135 117 60 102 134 125 160 155 172 160 102 57
45 22 24 17 17 32 19 21 34 34 42 56 59 62 63 82 76 66 76 87 107 145 148 109 121 189 130 145 149 187 107 91
37 37 30 21 14 24 24 27 41 36 34 44 36 25 20 39 51 54 55 63 78 120 146 156 142 122 169 133 162 54 127 123
39 41 34 20 20 31 29 29 34 33 26 27 18 8 3 30 34 47 40 33 42 59 69 116 106 36 73 119 30 92 69 89
49 44 44 27 30 34 43 44 42 41 32 54 15 16 5 7 -3 7 1 -9 -64 -28 -73 -58 15 41 58 114 56 60 71 70
63 53 56 42 42 49 48 53 58 44 45 79 33 39 12 9 6 6 14 6 11 -51 -83 -88 -26 13 42 58 87 54 80 54
82 55 65 58 51 59 58 52 64 41 63 93 90 61 31 31 30 37 45 109 15 -49 -57 -66 -88 -12 48 49 96 72 112 27
77 67 88 69 64 62 50 64 62 52 81 98 153 89 69 58 64 92 143 32 2 -3 -20 -75 -68 -65 53 129 119 130 117 -39
74 92 94 71 66 51 59 74 63 80 97 127 155 85 99 103 103 113 50 11 49 29 27 14 -21 -70 -7 48 81 61 128 80
80 94 96 70 57 63 74 80 83 110 120 143 134 91 193 95 55 65 41 53 49 48 28 25 1 -52 -49 -32 -69 -111 -10 -84
82 101 101 73 50 70 89 90 106 119 132 152 137 138 152 58 41 51 57 56 49 30 8 -2 -15 2 -12 -16 9 -66 14 -102
91 110 111 78 80 75 98 103 105 120 127 138 135 184 102 36 56 52 53 56 45 21 -4 -17 3 28 48 42 75 49 90 22
96 115 111 98 84 92 113 106 118 132 127 119 123 148 102 63 71 56 78 79 53 -16 -23 -18 47 64 75 111 237 168 107 100
110 120 106 121 92 109 120 118 115 129 123 116 102 124 103 81 72 80 85 90 41 -29 -28 2 85 57 46 101 230 136 263 211
100 93 125 142 107 115 112 111 109 120 121 101 117 84 68 74 76 80 88 78 63 26 42 62 127 104 63 27 143 209 448 207
107 77 145 158 124 119 132 140 123 125 118 86 77 57 66 80 65 81 85 86 71 67 62 63 77 83 87 74 78 169 191 303
123 74 159 163 136 144 159 144 121 117 101 82 77 50 68 82 70 80 85 89 72 68 78 73 52 40 59 103 104 132 184 253
87 102 170 161 141 147 159 147 129 122 106 81 78 73 86 82 71 91 92 69 60 79 75 66 46 18 17 48 76 163 259 225
89 108 156 140 132 141 151 136 116 115 109 81 62 78 100 96 92 98 88 51 51 66 67 47 45 6 22 51 101 135 186 200
93 105 131 126 126 133 143 133 107 119 100 81 73 82 103 91 99 90 70 38 32 60 50 28 38 4 25 34 73 149 159 157
Wind_Speed
55 60 66 70 66 74 73 73 74 77 79 83 86 84 83 83 83 82 83 84 84 82 78 82 83 81 79 77 80 84 80 75
54 60 65 69 66 74 74 74 74 77 80 85 88 87 86 88 87 86 85 84 83 83 85 84 83 80 75 75 77 82 78 76
53 59 66 69 69 72 71 71 75 76 78 83 85 85 84 87 89 89 88 86 84 85 87 87 83 78 80 79 77 71 81 80
57 59 66 69 70 68 70 69 71 72 76 79 83 85 86 89 90 92 89 89 85 87 87 87 84 81 80 81 75 77 79 84
58 61 65 69 71 69 68 67 73 74 75 76 85 85 88 89 89 90 86 87 80 84 85 84 85 86 84 83 81 79 79 83
56 61 63 66 69 70 67 67 74 74 75 79 86 86 91 92 92 91 88 84 85 89 89 87 90 90 89 88 86 84 81 80
57 60 63 67 70 68 67 68 76 74 78 80 81 88 92 91 91 89 88 85 90 94 92 94 92 91 92 91 90 88 86 81
60 58 63 69 67 70 68 69 77 74 79 81 82 89 87 91 89 90 88 93 95 95 94 93 92 91 95 93 91 90 90 82
58 61 64 70 66 66 68 71 75 75 77 77 85 92 86 90 91 92 93 98 94 92 91 90 93 89 95 94 91 86 91 85
55 58 62 68 63 67 67 72 72 75 76 78 87 87 87 91 94 91 95 90 87 87 86 87 86 92 92 92 97 99 104 99
54 58 62 65 64 67 70 72 72 75 78 80 85 83 88 91 87 87 85 82 83 83 82 82 85 85 88 92 97 99 100 95
52 57 61 65 66 66 69 70 73 76 80 83 83 83 85 87 81 82 84 79 82 83 82 78 82 80 85 88 91 91 89 89
51 57 63 66 69 69 72 73 77 78 79 81 82 83 83 82 78 79 69 69 78 82 78 79 71 71 74 75 71 68 67 65
50 59 63 64 66 67 69 71 76 77 77 79 80 82 82 77 72 69 64 58 71 78 63 53 48 55 61 58 49 50 52 56
50 60 59 62 63 64 69 71 75 78 79 78 77 82 79 71 66 63 53 46 25 33 34 38 34 40 47 44 40 51 57 51
50 56 57 60 64 66 74 78 81 78 79 75 76 81 73 65 69 60 46 33 18 23 28 32 36 36 38 37 35 39 45 56
52 52 56 61 64 68 72 76 74 73 76 75 77 76 70 67 70 56 41 26 20 26 27 29 33 31 35 33 31 29 34 44
50 53 57 62 64 68 73 76 76 76 78 77 76 72 68 68 69 53 36 21 23 22 25 27 33 33 34 30 28 26 30 33
50 52 58 61 64 68 72 74 74 75 77 75 78 74 69 67 59 44 33 24 27 27 22 31 31 32 33 29 28 26 28 31
49 52 57 60 64 68 71 73 71 73 73 73 73 72 66 65 51 42 30 26 33 32 22 30 29 31 31 32 29 29 30 28
Wind_Direction
17 11 7 4 7 4 2 1 360 357 353 350 347 344 342 340 337 336 333 331 327 325 324 319 312 306 299 294 287 277 276 276
18 12 8 6 7 2 1 0 359 356 354 351 347 345 342 339 337 334 333 332 330 325 319 316 314 308 305 299 292 279 274 273
19 13 9 8 6 5 4 3 358 356 355 352 351 348 344 342 338 335 333 331 328 324 319 314 311 309 303 300 295 288 273 270
13 13 10 7 5 7 5 4 2 360 356 353 351 348 345 342 339 334 331 328 325 322 318 314 311 307 303 298 296 288 278 267
12 12 9 7 6 6 6 5 1 357 355 355 352 349 345 342 338 335 332 328 326 323 318 314 309 305 300 295 291 289 280 270
13 9 9 9 8 7 6 4 0 358 356 354 351 349 345 342 339 335 333 330 327 323 316 311 307 302 297 292 288 284 280 275
10 9 10 8 7 8 6 3 360 357 356 355 355 350 346 344 341 338 335 335 329 323 316 309 304 299 295 290 285 279 277 274
8 12 10 7 9 6 5 4 359 358 357 356 357 353 349 346 344 341 339 334 328 323 316 310 304 299 292 288 282 276 272 271
11 10 10 9 9 8 5 3 0 360 358 359 357 354 351 349 346 343 339 334 329 325 319 313 304 298 292 286 282 276 270 269
14 14 13 10 10 8 7 5 4 3 1 360 357 355 356 352 347 344 340 338 335 329 324 317 310 301 290 284 279 272 265 263
16 17 14 12 11 9 8 7 7 5 3 1 358 359 357 354 352 350 348 345 340 333 326 318 310 303 292 284 278 268 262 259
21 19 16 13 13 12 12 10 8 6 4 3 2 3 0 360 360 358 354 351 344 335 328 327 315 306 297 285 278 264 257 253
24 19 15 14 13 14 13 11 9 8 7 5 6 7 6 6 7 4 7 3 352 341 334 322 314 311 304 296 277 260 247 256
24 19 15 18 17 18 16 13 11 10 9 9 10 12 11 13 14 12 12 13 4 338 314 305 297 304 310 300 267 248 257 246
24 16 20 21 21 20 17 15 13 12 12 12 16 15 15 17 19 18 19 22 16 307 301 299 294 298 309 306 264 244 254 245
22 20 24 23 23 21 17 15 13 14 14 15 17 17 19 23 20 22 24 26 345 311 302 298 300 300 303 307 292 264 241 236
22 26 27 25 24 22 20 18 17 17 16 18 20 20 23 25 22 26 29 22 330 311 306 305 306 300 304 298 298 276 258 244
26 27 28 26 26 23 22 20 20 19 19 21 23 23 26 26 26 30 30 2 325 317 310 309 312 312 313 308 301 280 266 256
27 29 29 28 27 24 24 23 22 22 22 24 24 25 28 28 30 32 31 340 323 320 315 319 319 320 321 315 303 293 282 269
30 31 30 30 28 26 26 26 26 26 26 29 30 29 31 32 35 36 29 338 325 323 321 324 324 327 326 324 313 305 301 292